Location: ??
(35.4032°N, 139.3073°E)
Time: 12:17:22
(UTC+00:00)

ASTRO E2 - Pass Details

Date: 13 April 2024
Orbit: 430 x 434 km, 31.4° (Epoch: 26 May)

Event Time Altitude Azimuth Distance (km) Brightness Sun altitude
Exits shadow 18:01:48 - 131° (SE) 1,775 5.6 -25.2°
Enters shadow 18:59:14 -71° 264° (W) 12,502 9.6 -14.9°
Maximum altitude 19:38:30 26° 164° (SSE) 902 3.9 -7.4°
